Location: Ravensburg
(47.7866°N, 9.6124°E)
Time: 08:46:38
(UTC+02:00)

YUBILEINY - Pass Details

Date: 21 March 2026
Orbit: 1477 x 1509 km, 82.5° (Epoch: 17 April)

Event Time Altitude Azimuth Distance (km) Brightness Sun altitude
Rises 00:53:22 0° 353° (N) 4,620 ? -41.8°
Reaches altitude 10° 00:57:22 10° 10° (N) 3,632 ? -41.7°
Maximum altitude 01:03:30 20° 55° (NE) 2,887 ? -41.5°
Drops below altitude 10° 01:09:34 10° 100° (E) 3,615 ? -41.2°
Enters shadow 01:10:22 - 104° (ESE) 3,795 ? -41.2°
